Stations météo

Publicité
Ile Rousse, France (7753): Température de l'air & dewpoint: 02.04.2020 03:00:00 - 08.04.2020 03:00:00 (CEST)Ile Rousse, France (7753): Vitesse du vent & gusts: 02.04.2020 03:00:00 - 08.04.2020 03:00:00 (CEST)Ile Rousse, France (7753): Direction du vent: 02.04.2020 03:00:00 - 08.04.2020 03:00:00 (CEST)Ile Rousse, France (7753): reduced air pressure: 02.04.2020 03:00:00 - 08.04.2020 03:00:00 (CEST)Ile Rousse, France (7753): visibility: 02.04.2020 03:00:00 - 08.04.2020 03:00:00 (CEST)Ile Rousse, France (7753): Quantités de précipitations: 02.04.2020 03:00:00 - 08.04.2020 03:00:00 (CEST)
Date & Time tt [°C] td [°C] ff [km/h] ff [knt] fx [km/h] fx [knt] dd ppp [hPa] vv [km] rr [mm]
08.04.2020 03:00:00 - - - - - - - - - -
08.04.2020 02:00:00 14,0 5,4 8 4 15 8 NNW 1026,6 - 0,0
08.04.2020 01:00:00 15,2 4,0 11 6 16 9 SW 1026,3 - 0,0
08.04.2020 00:00:00 16,4 2,0 3 1 15 8 SSW 1026,2 - 0,0
07.04.2020 23:00:00 16,8 2,0 3 2 7 4 S 1026,3 - 0,0
07.04.2020 22:00:00 15,1 6,6 5 3 9 5 W 1026,2 - 0,0
07.04.2020 21:00:00 15,4 7,4 7 4 10 6 NE 1026,0 - 0,0
07.04.2020 20:00:00 16,7 4,7 8 4 21 11 ENE 1025,3 - 0,0
07.04.2020 19:00:00 17,1 6,3 12 6 23 12 E 1025,1 - 0,0
07.04.2020 18:00:00 17,9 6,4 13 7 25 14 E 1025,1 - 0,0
07.04.2020 17:00:00 17,9 6,4 16 9 40 22 ENE 1025,4 - 0,0
07.04.2020 16:00:00 18,0 4,9 21 12 42 23 NE 1025,7 - 0,0
07.04.2020 15:00:00 17,3 3,6 32 18 47 26 NE 1026,2 - 0,0
07.04.2020 14:00:00 17,5 4,8 34 18 45 24 NE 1026,3 20 0,0
07.04.2020 13:00:00 17,4 7,2 16 9 28 15 ENE 1026,9 - 0,0
07.04.2020 12:00:00 16,2 6,9 14 7 23 13 NE 1027,1 - 0,0
07.04.2020 11:00:00 16,4 8,4 14 7 22 12 ENE 1027,2 - 0,0
07.04.2020 10:00:00 16,1 3,8 6 4 13 7 ENE 1026,8 - 0,0
07.04.2020 09:00:00 14,8 4,8 5 3 13 7 E 1026,6 - 0,0
07.04.2020 08:00:00 13,5 4,6 9 5 16 9 ESE 1026,4 - 0,0
07.04.2020 07:00:00 13,1 6,9 11 6 16 8 NE 1026,1 - 0,0
07.04.2020 06:00:00 13,8 5,7 0 0 5 3 N 1025,3 - 0,0
07.04.2020 05:00:00 13,2 5,6 3 1 7 4 ESE 1025,6 - 0,0
07.04.2020 04:00:00 13,0 5,4 4 2 15 8 E 1025,8 - 0,0
07.04.2020 03:00:00 13,4 5,0 9 5 13 7 E 1026,0 - 0,0
07.04.2020 02:00:00 14,5 4,5 4 2 13 7 NNW 1026,2 - 0,0
07.04.2020 01:00:00 14,7 4,9 9 5 13 7 WSW 1026,1 - 0,0
07.04.2020 00:00:00 14,8 6,1 7 4 10 5 WNW 1026,0 - 0,0
06.04.2020 23:00:00 14,6 6,2 6 3 13 7 WSW 1025,8 - 0,0
06.04.2020 22:00:00 15,8 5,4 6 3 12 6 W 1025,6 - 0,0
06.04.2020 21:00:00 14,8 7,3 6 3 13 7 WSW 1025,2 - 0,0
06.04.2020 20:00:00 15,5 6,8 8 5 14 8 ENE 1024,2 - 0,0
06.04.2020 19:00:00 15,9 8,4 10 5 15 8 ENE 1023,8 - 0,0
06.04.2020 18:00:00 16,7 7,3 10 5 23 12 ENE 1023,5 - 0,0
06.04.2020 17:00:00 16,4 7,3 9 5 23 12 NNE 1023,6 15 0,0
06.04.2020 16:00:00 16,0 8,0 18 10 30 16 NE 1023,9 - 0,0
06.04.2020 15:00:00 15,8 7,8 18 10 39 21 NE 1024,0 - 0,0
06.04.2020 14:00:00 15,4 9,1 28 15 44 24 NE 1023,8 20 0,0
06.04.2020 13:00:00 15,4 7,9 35 19 51 28 NE 1023,5 - 0,0
06.04.2020 12:00:00 15,0 8,9 33 18 44 24 NE 1023,4 - 0,0
06.04.2020 11:00:00 15,4 4,1 24 13 34 18 NE 1023,5 - 0,0
06.04.2020 10:00:00 14,8 3,3 21 11 33 18 ENE 1023,2 - 0,0
06.04.2020 09:00:00 13,4 2,6 20 11 26 14 ENE 1022,5 - 0,0
06.04.2020 08:00:00 12,6 -0,3 15 8 25 13 E 1022,2 - 0,0
06.04.2020 07:00:00 12,8 -0,5 13 7 19 11 ENE 1021,8 - 0,0
06.04.2020 06:00:00 12,5 -0,4 14 7 29 15 E 1021,6 - 0,0
06.04.2020 05:00:00 11,7 2,4 23 12 31 17 ENE 1021,6 - 0,0
06.04.2020 04:00:00 13,4 -0,6 19 10 27 14 E 1021,3 - 0,0
06.04.2020 03:00:00 13,1 0,1 11 6 21 12 E 1021,4 - 0,0
06.04.2020 02:00:00 13,5 1,2 15 8 20 11 ENE 1021,5 - 0,0
06.04.2020 01:00:00 13,8 0,1 18 10 24 13 E 1021,7 - 0,0
06.04.2020 00:00:00 14,1 0,3 20 11 29 16 ENE 1021,7 - 0,0
05.04.2020 23:00:00 13,8 -0,3 24 13 29 16 E 1021,6 15 0,0
05.04.2020 22:00:00 13,7 1,0 21 11 29 16 E 1021,2 - 0,0
05.04.2020 21:00:00 13,8 2,4 22 12 37 20 E 1020,7 - 0,0
05.04.2020 20:00:00 13,6 7,8 20 11 41 22 ENE 1020,1 - 0,0
05.04.2020 19:00:00 15,3 6,3 30 16 56 30 NE 1019,4 - 0,0
05.04.2020 18:00:00 15,7 4,7 42 23 61 33 NE 1018,9 - 0,0
05.04.2020 17:00:00 15,0 6,0 40 21 59 32 NE 1019,2 - 0,0
05.04.2020 16:00:00 14,9 6,7 41 22 54 29 NE 1019,1 - 0,0
05.04.2020 15:00:00 16,6 0,7 38 21 51 28 NE 1019,7 - 0,0
05.04.2020 14:00:00 18,8 -2,2 33 18 54 29 E 1020,2 - 0,0
05.04.2020 13:00:00 18,6 -1,8 36 19 63 34 E 1020,7 - 0,0
05.04.2020 12:00:00 17,7 -1,6 48 26 69 38 E 1020,6 - 0,0
05.04.2020 11:00:00 17,2 -1,0 45 24 65 35 E 1021,0 18 0,0
05.04.2020 10:00:00 16,5 0,2 40 21 63 34 E 1021,3 - 0,0
05.04.2020 09:00:00 15,6 -1,1 41 22 64 35 ESE 1021,2 - 0,0
05.04.2020 08:00:00 14,5 -2,0 38 21 67 36 ESE 1020,9 - 0,0
05.04.2020 07:00:00 14,2 -2,7 39 21 71 38 E 1020,4 - 0,0
05.04.2020 06:00:00 14,5 -2,5 44 24 74 40 ESE 1019,9 - 0,0
05.04.2020 05:00:00 13,8 -2,2 35 19 49 26 ESE 1020,3 - 0,0
05.04.2020 04:00:00 13,3 -2,7 33 18 40 22 ESE 1020,5 - 0,0
05.04.2020 03:00:00 13,1 -1,7 21 11 31 17 E 1021,1 - 0,0
05.04.2020 02:00:00 12,5 -1,1 26 14 31 17 E 1021,5 - 0,0
05.04.2020 01:00:00 12,2 -0,4 22 12 33 18 E 1021,3 - 0,0
05.04.2020 00:00:00 13,8 -2,6 17 9 23 12 E 1021,2 - 0,0
04.04.2020 23:00:00 14,2 -4,1 21 11 27 15 E 1021,0 - 0,0
04.04.2020 22:00:00 14,2 -3,6 22 12 28 15 E 1020,6 - 0,0
04.04.2020 21:00:00 14,4 -3,0 21 12 26 14 E 1020,1 - 0,0
04.04.2020 20:00:00 13,8 3,3 16 9 25 14 E 1019,3 20 0,0
04.04.2020 19:00:00 14,8 6,9 14 8 32 17 E 1018,6 - 0,0
04.04.2020 18:00:00 15,4 6,7 23 12 40 22 NE 1018,3 - 0,0
04.04.2020 17:00:00 15,3 6,8 31 17 52 28 NE 1018,7 20 0,0
04.04.2020 16:00:00 15,3 7,1 38 21 55 30 NE 1018,7 - 0,0
04.04.2020 15:00:00 15,3 7,1 35 19 52 28 NE 1018,5 - 0,0
04.04.2020 14:00:00 15,9 6,6 37 20 50 27 NE 1019,0 - 0,0
04.04.2020 13:00:00 16,2 4,6 34 19 50 27 NE 1018,7 - 0,0
04.04.2020 12:00:00 17,3 4,6 31 17 51 27 ENE 1019,1 - 0,0
04.04.2020 11:00:00 17,1 0,3 35 19 49 26 E 1019,2 15 0,0
04.04.2020 10:00:00 14,9 2,1 30 16 44 24 E 1018,5 - 0,0
04.04.2020 09:00:00 11,7 2,9 24 13 32 17 E 1018,2 - 0,0
04.04.2020 08:00:00 10,9 0,3 22 12 29 16 E 1017,7 - 0,0
04.04.2020 07:00:00 9,9 4,1 16 9 20 11 E 1017,4 - 0,0
04.04.2020 06:00:00 9,9 5,7 11 6 18 10 E 1016,8 - 0,0
04.04.2020 05:00:00 9,9 6,1 14 7 17 9 ESE 1016,7 - 0,0
04.04.2020 04:00:00 10,1 5,3 13 7 17 9 E 1016,4 - 0,0
04.04.2020 03:00:00 10,4 4,7 13 7 19 10 E 1016,6 - 0,0
04.04.2020 02:00:00 10,5 5,5 11 6 17 9 E 1016,3 - 0,0
04.04.2020 01:00:00 10,6 6,0 13 7 16 9 ESE 1016,1 - 0,0
04.04.2020 00:00:00 10,5 5,9 12 7 16 8 E 1015,8 - 0,0
03.04.2020 23:00:00 10,7 6,1 10 6 16 9 ESE 1015,5 20 0,0
03.04.2020 22:00:00 10,7 6,8 9 5 14 7 E 1014,9 - 0,0
03.04.2020 21:00:00 11,0 7,1 8 4 12 7 E 1014,2 - 0,0
03.04.2020 20:00:00 11,9 7,0 9 5 16 8 E 1013,6 - 0,0
03.04.2020 19:00:00 13,3 7,5 11 6 22 12 ENE 1013,0 - 0,0
03.04.2020 18:00:00 13,3 6,2 16 9 25 14 NE 1012,7 - 0,0
03.04.2020 17:00:00 13,4 7,6 18 10 34 18 NE 1012,3 - 0,0
03.04.2020 16:00:00 13,2 7,6 23 13 30 16 NNE 1012,4 - 0,0
03.04.2020 15:00:00 14,6 7,9 11 6 22 12 N 1012,4 - 0,0
03.04.2020 14:00:00 13,1 6,9 11 6 22 12 NNE 1012,8 20 0,0
03.04.2020 13:00:00 12,6 6,2 15 8 23 13 NNE 1012,9 - 0,0
03.04.2020 12:00:00 12,2 5,4 14 7 22 12 NNE 1013,0 - 0,0
03.04.2020 11:00:00 11,7 5,3 14 8 21 12 NNE 1012,8 18 0,0
03.04.2020 10:00:00 11,1 4,8 10 5 17 9 NE 1012,4 - 0,0
03.04.2020 09:00:00 10,6 4,5 7 4 11 6 NE 1012,2 - 0,0
03.04.2020 08:00:00 9,6 4,0 3 2 9 5 N 1012,1 - 0,0
03.04.2020 07:00:00 9,2 3,0 2 1 6 3 NW 1011,7 - 0,0
03.04.2020 06:00:00 9,7 2,8 4 2 6 3 SW 1011,6 - 0,0
03.04.2020 05:00:00 9,5 2,6 5 3 8 5 WSW 1011,7 - 0,0
03.04.2020 04:00:00 9,5 2,3 8 4 9 5 WSW 1011,7 - 0,0
03.04.2020 03:00:00 9,7 2,5 5 3 8 4 W 1011,9 - 0,0
03.04.2020 02:00:00 9,8 2,4 0 0 8 4 N 1012,1 - 0,0
03.04.2020 01:00:00 9,9 2,7 2 1 9 5 W 1012,4 - 0,0
03.04.2020 00:00:00 10,0 2,8 3 2 11 6 WSW 1012,6 - 0,0
02.04.2020 23:00:00 9,9 2,7 8 5 14 7 W 1012,7 - 0,0
02.04.2020 22:00:00 10,0 2,8 10 6 14 8 WSW 1012,7 - 0,0
02.04.2020 21:00:00 10,3 2,4 10 5 17 9 WSW 1012,1 - 0,0
02.04.2020 20:00:00 10,5 2,1 11 6 18 10 WSW 1011,7 - 0,0
02.04.2020 19:00:00 12,4 1,7 8 5 19 10 W 1011,6 - 0,0
02.04.2020 18:00:00 12,9 1,5 10 6 22 12 WNW 1011,7 - 0,0
02.04.2020 17:00:00 12,6 2,7 10 5 20 11 NNW 1011,9 - 0,0
02.04.2020 16:00:00 11,6 2,1 11 6 24 13 NNE 1012,2 - 0,0
02.04.2020 15:00:00 12,0 1,6 16 9 27 14 NNE 1012,6 - 0,0
02.04.2020 14:00:00 11,6 2,6 18 10 29 15 NNE 1013,1 20 0,0
02.04.2020 13:00:00 11,6 2,3 21 11 27 14 NNE 1013,5 - 0,0
02.04.2020 12:00:00 11,4 1,6 21 11 28 15 NNE 1013,5 - 0,0
02.04.2020 11:00:00 11,1 -0,4 22 12 30 16 NE 1013,4 15 0,0
02.04.2020 10:00:00 11,4 -1,1 17 9 26 14 ENE 1013,4 - 0,0
02.04.2020 09:00:00 9,7 2,8 11 6 17 9 ENE 1013,3 - 0,0
02.04.2020 08:00:00 8,9 2,5 8 5 11 6 ESE 1013,4 - 0,0
02.04.2020 07:00:00 8,7 2,5 0 0 3 2 N 1013,5 - 0,0
02.04.2020 06:00:00 8,8 2,6 0 0 13 7 N 1013,7 - 0,0
02.04.2020 05:00:00 9,0 2,5 9 5 12 7 SW 1013,8 15 0,0
02.04.2020 04:00:00 8,9 2,9 2 1 4 2 SSW 1014,4 - 0,0
02.04.2020 03:00:00 9,1 2,6 2 1 9 5 S 1014,7 - 0,0

tt = Température de l'air
td = dewpoint
ff = Vitesse du vent
fx = gusts
dd = Direction du vent
ppp = reduced air pressure
vv = visibility
rr = Quantités de précipitations

stations d'obs. à proximité